"Pseudo-MPEC" for P11DRGu

Created 2023 Mar 27 10:22:13 UT using Find_Orb

Click here for an explanation of pseudo-MPECs

 
 Astrometry: 
     P11DRGu* C2023 03 25pZNiql@*$p79ToB=?1vWMVVuP2n^4O5+cdNZ0ndhdV[?K#6j4fBXF51
     P11DRGu  C2023 03 25kLD:0YidS8gN`RKbwD3TZWBFY8Bl*o6DYIgYg@wY.%@:ukLii##IF51
     P11DRGu  C2023 03 25Z;ELEniN@Wa-Q9g9a-:,cfuRGxSJ!gemeocTw)e^kqw2dpsrd%5PF51
     P11DRGu  C2023 03 25TBQ,OUaAac,VL:-0Zl!+C3om`AW?Wbsy9YNo@jj'-P8YDEi$kDciF51
     P11DRGu 2C2023 03 251Y\q:6WVc0oB^b(bD5l\I7'8os7YHlx@Fl0$Ht4rMjYUS#ky_:j@095
     P11DRGu 2C2023 03 25,`mws/F?b@eTPC#J2uA_e:r#_rSb6`*]Om]nU#Z0TWgXibyN'yCT095
     P11DRGu 2C2023 03 25V\LL6hcvEG3t:qCJNW4(4!aX=`,D:)xJf$wG`Rla?Astrometry@095
     P11DRGu 2C2023 03 25U6=%?tmredacted;GcnbAe#'0qebAQA-BX9h?X.uIThTH5=R8\U@095
     P11DRGu 2C2023 03 25lL_.G6)fwKD69dn_=(m+6;uT2'Fn6@:%co,OlWt\K8Q'QHcD.y`]095
     P11DRGu 2C2023 03 25-rdT@tZ\Yoh/]x%u),,oJ:n0w\aV;*\1*sjT;Sp;jH@?RE^upRDZ095
     P11DRGu 2C2023 03 25Oqj0s_:0pE]:yxnI:^q4$Io#aDs9h.Bh%2xRqmA8y\kx*:lB1Z5O095
     P11DRGu 2C2023 03 25$vtQj_2_y7qJ*glBg(3?f'1.9EcNOg$IrH?X[$P4G^F5*iVclick095
     P11DRGu 2C2023 03 25fVuR^`;Q_X%4E]7q,W)A[Z/w[GDpRgrwU%[;@2Uxkiw)'ni^Rds2095
     P11DRGu bC2023 03 26sqm@ohereL6Dy3$IoD[Jv'nM0uuS3M=,_jW-0K7I6*I:Ss8hCho7L01
     P11DRGu bC2023 03 26;Yf6fSd)`#sq0^x5On_ex.YQ[K@Y9iJT#7Dij.s*fFP*Tf3KR!Y1L01
     P11DRGu bC2023 03 26,o6NOpx]s5(Zj5V6@-tNs.Qx`,WL8b?TliSOBWXHforHAX^;?XDlL01
     P11DRGu KC2023 03 26fOj'[SM(oF]a5j7Q2H0ipXd)pYN#oo,_PA;]oDR;[n+K+\7SF$XDH21
     P11DRGu KC2023 03 26aN$cW[XhrV/39X1ENF9Yqxoc,pid(4KWl4hMGHos$%`q7Lper0xDH21
     P11DRGu KC2023 03 26bH-nPXF)W0ry^sGSF%2,v$XGC+1BOsj6hbfb+^t;0sS)AaOFs5wQH21
     P11DRGu  C2023 03 26HDuSU=\(arp#^Kei/__?38Ty+TMtQ$BOyO^p1g1]7hBb.eKmJDZ=F52
     P11DRGu  C2023 03 264p_CCZNV$!,bLq)7UAQ]4/[AS8.*.mMRMT*Z/jv5aMp!SG^Adm_!F52
     P11DRGu  C2023 03 26w/I+v7*REh2/XcDsiqjj$7(EUv:Q@k:CwthL4h9CFA@Emdiq!qqWF52
     P11DRGu  C2023 03 26GsKxm=l7nc16c]JRPGRexplanation,iLQ66t-lFX#GQNEEl\mUGF52

Station data:
(095) Crimea-Nauchnij  (N44.726555 E34.016000)  Ukraine.  Observers V.
   Rumyantsev, V. V. Rumyantsev. Measurers A. Novichonok, A. Zhornichenko.
   0.35-m f/5 reflector + CCD0.64-m reflector + CCD.
(F51) Pan-STARRS 1, Haleakala  (N20.707234 W156.255910)  US/Hawaii.
   Observers J. Bulger, T. Lowe, A. Schultz, M. Willman. Measurers K.
   Chambers, S. Chastel, T. de Boer, L. Denneau, J. Fairlamb, H. Flewelling,
   M. Huber, C.-C. Lin, E. Magnier, Y. Ramanjooloo, R. Wainscoat, R. Weryk.
   1.8-m Ritchey-Chrétien + CCD.
(F52) Pan-STARRS 2, Haleakala  (N20.707382 W156.255910)  US/Hawaii.
   Observers J. Bulger, T. Dukes, T. Lowe, A. Schultz, M. Willman. Measurers
   K. Chambers, S. Chastel, T. de Boer, L. Denneau, J. Fairlamb, H.
   Flewelling, M. Huber, C.-C. Lin, E. Magnier, Y. Ramanjooloo, R. Wainscoat,
   R. Weryk. 1.8-m Ritchey-Chrétien + CCD.
(H21) Astronomical Research Observatory, Westfield  (N39.483054 W87.968270)
   US/Illinois.  Observer R. Holmes. Measurers S. Foglia, L. Buzzi, T.
   Linder, R. Holmes. 0.76-m f/3.0 astrograph + CCD0.81-m f/4.0 astrograph +
   CCD0.61-m f/4.5 astrograph + CCD0.40-m f/5.32 astrograph + CCD.
(L01) Višnjan Observatory, Tičan  (N45.290897 E13.749300)  Croatia.
   Observers K. Korlević, D. Pujagic, V. Dobos. Measurers D. Pujagic, K.
   Korlević. 1.0-m f/2.9 reflector + CCD.

Orbital elements:  P11DRGu
   Perihelion 2022 Nov 21.82703 +/- 0.186 TT = 19:50:55 (JD 2459905.32703)
Epoch 2023 Mar 26.0 TT = JDT 2460029.5   Earth MOID: 0.0235   Ve: 0.0149
M 139.36527942 +/- 0.20             (J2000 ecliptic)             AutoNEOCP
n   1.12234798 +/- 0.000252         Peri.  213.54345 +/- 0.12
a   0.91703172 +/- 0.000137         Node   179.25656 +/- 0.0049
e   0.1944267 +/- 0.000557          Incl.    3.78214 +/- 0.010
P   0.88/320.75d           H 26.09  G  0.15   U  7.2
q 0.73873622 +/- 0.000594    Q 1.09532722 +/- 0.000412
From 23 observations 2023 Mar. 25-26 (22.3 hr); mean residual 0".38
Residuals in arcseconds: 
230325 F51  .09+  .14-    230325 095  .27+  .21-    230326 H21  .18-  .12+    
230325 F51  .09+  .11+    230325 095  .34+  .11-    230326 H21  .31-  .17-    
230325 F51  .11-  .01-    230325 095  .40+  .20-    230326 H21  .12-  .18-    
230325 F51  .11-  .07+    230325 095  .66+  .58-    230326 F52  .03+  .02+    
230325 095  .57+  .49-    230325 095  .57+  .68-    230326 F52  .07-  .14+    
230325 095  .34+  .09-    230326 L01  .67-  .14+    230326 F52  .09+  .29-    
230325 095  .40+  .18-    230326 L01  1.1-  .64+    230326 F52  .02+  .11+    
230325 095  .21+  .32-    230326 L01  .21+  .97+    

Ephemerides (geocentric):
Date (UTC) HH   RA             Dec           delta  r     elong  mag " sig PA
---- --------  ------------   ------------  ------ ------ -----  --- --------
2023 03 27 10  11 53 09.882   +07 30 07.67  .07042 1.0666 167.6 21.2 .175  92
2023 03 27 11  11 52 58.781   +07 33 05.13  .07051 1.0667 167.5 21.2 .177  90
2023 03 27 12  11 52 47.707   +07 36 02.11  .07059 1.0667 167.4 21.2 .179  88
2023 03 27 13  11 52 36.659   +07 38 58.59  .07068 1.0668 167.3 21.2 .180  86
2023 03 27 14  11 52 25.639   +07 41 54.59  .07076 1.0669 167.2 21.3 .182  85
2023 03 27 15  11 52 14.644   +07 44 50.11  .07084 1.0669 167.1 21.3 .184  83
2023 03 27 16  11 52 03.677   +07 47 45.13  .07093 1.0670 167.0 21.3 .185  81
2023 03 27 17  11 51 52.735   +07 50 39.67  .07101 1.0671 166.9 21.3 .187  79
2023 03 27 18  11 51 41.820   +07 53 33.72  .07110 1.0671 166.8 21.3 .189  77
2023 03 27 19  11 51 30.932   +07 56 27.29  .07118 1.0672 166.7 21.3 .191  75
2023 03 27 20  11 51 20.070   +07 59 20.38  .07127 1.0673 166.6 21.3 .194  73
2023 03 27 21  11 51 09.235   +08 02 12.98  .07135 1.0673 166.5 21.3 .196  71
2023 03 27 22  11 50 58.426   +08 05 05.10  .07144 1.0674 166.4 21.3 .199  69
2023 03 27 23  11 50 47.643   +08 07 56.74  .07152 1.0675 166.3 21.3 .201  67
2023 03 28 00  11 50 36.886   +08 10 47.89  .07161 1.0675 166.2 21.3 .204  65
2023 03 28 01  11 50 26.156   +08 13 38.57  .07169 1.0676 166.1 21.3 .207  63
2023 03 28 02  11 50 15.453   +08 16 28.76  .07178 1.0677 166.0 21.3 .210  61
2023 03 28 03  11 50 04.775   +08 19 18.48  .07187 1.0677 165.9 21.3 .214  59
2023 03 28 04  11 49 54.124   +08 22 07.71  .07195 1.0678 165.8 21.3 .217  57
2023 03 28 05  11 49 43.499   +08 24 56.47  .07204 1.0679 165.7 21.3 .221  55
2023 03 28 06  11 49 32.900   +08 27 44.75  .07212 1.0679 165.6 21.4 .225  53
2023 03 28 07  11 49 22.327   +08 30 32.56  .07221 1.0680 165.5 21.4 .229  51
2023 03 28 08  11 49 11.780   +08 33 19.88  .07230 1.0681 165.4 21.4 .234  49
2023 03 28 09  11 49 01.260   +08 36 06.73  .07239 1.0681 165.3 21.4 .238  47
2023 03 28 10  11 48 50.765   +08 38 53.11  .07247 1.0682 165.2 21.4 .243  45
2023 03 28 11  11 48 40.297   +08 41 39.01  .07256 1.0683 165.1 21.4 .248  44
2023 03 28 12  11 48 29.855   +08 44 24.44  .07265 1.0683 165.0 21.4 .253  42
2023 03 28 13  11 48 19.438   +08 47 09.40  .07273 1.0684 164.9 21.4 .259  40
2023 03 28 14  11 48 09.048   +08 49 53.88  .07282 1.0685 164.8 21.4 .265  38
2023 03 28 15  11 47 58.683   +08 52 37.89  .07291 1.0685 164.7 21.4 .271  37
2023 03 28 16  11 47 48.345   +08 55 21.43  .07300 1.0686 164.6 21.4 .277  35
2023 03 28 17  11 47 38.032   +08 58 04.51  .07309 1.0687 164.5 21.4 .283  34
2023 03 28 18  11 47 27.745   +09 00 47.11  .07317 1.0687 164.4 21.4 .290  32
2023 03 28 19  11 47 17.484   +09 03 29.24  .07326 1.0688 164.3 21.4 .297  31
2023 03 28 20  11 47 07.249   +09 06 10.91  .07335 1.0689 164.2 21.4 .304  29
2023 03 28 21  11 46 57.040   +09 08 52.11  .07344 1.0689 164.1 21.4 .312  28
2023 03 28 22  11 46 46.856   +09 11 32.84  .07353 1.0690 164.0 21.5 .319  26
2023 03 28 23  11 46 36.698   +09 14 13.11  .07362 1.0691 163.9 21.5 .327  25
2023 03 29 00  11 46 26.566   +09 16 52.92  .07371 1.0691 163.8 21.5 .335  24
2023 03 29 01  11 46 16.459   +09 19 32.26  .07380 1.0692 163.7 21.5 .344  22
2023 03 29 02  11 46 06.378   +09 22 11.13  .07389 1.0693 163.6 21.5 .352  21
2023 03 29 03  11 45 56.323   +09 24 49.55  .07397 1.0693 163.5 21.5 .361  20
2023 03 29 04  11 45 46.293   +09 27 27.50  .07406 1.0694 163.4 21.5 .370  19
2023 03 29 05  11 45 36.289   +09 30 04.99  .07415 1.0695 163.3 21.5 .379  17
2023 03 29 06  11 45 26.310   +09 32 42.02  .07424 1.0695 163.2 21.5 .388  16
2023 03 29 07  11 45 16.357   +09 35 18.60  .07433 1.0696 163.1 21.5 .398  15
2023 03 29 08  11 45 06.429   +09 37 54.71  .07442 1.0696 163.1 21.5 .408  14
2023 03 29 09  11 44 56.527   +09 40 30.37  .07451 1.0697 163.0 21.5 .418  13